EHI
0 0 0 0 0 0 0 0 0 0 0 0 0 0 0 0 0 0 0 0 0 0 0 0 0 0 0 0 0 0 0 0 0 0 0 0 0 0 0 0 0 0 0 0
0 0 0 0 0 0 0 0 0 0 0 0 0 0 0 0 0 0 0 0 0 0 0 0 0 0 0 0 0 0 0 0 0 0 0 0 0 0 0 0 0 0 0 0
0 0 0 0 0 0 0 0 0 0 0 0 0 0 0 0 0 0 0 0 0 0 0 0 0 0 0 0 0 0 0 0 0 0 0 0 0 0 0 0 0 0 0 0
0 0 0 0 0 0 0 0 0 0 0 0 0 0 0 0 0 0 0 0 0 0 0 0 0 0 0 0 0 0 0 0 0 0 0 0 0 0 0 0 0 0 0 0
0 0 0 0 0 0 0 0 0 0 0 0 0 0 0 0 0 0 0 0 0 0 0 0 0 0 0 0 0 0 0 0 0 0 0 0 0 0 0 0 0 0 0 0
0 0 0 0 0 0 0 0 0 0 0 0 0 0 0 0 0 0 0 0 0 0 0 0 0 0 0 0 0 0 0 0 0 0 0 0 0 0 0 0 0 0 0 0
0 0 0 0 0 0 0 0 0 0 0 0 0 0 0 0 0 0 0 0 0 0 0 0 0 0 0 0 0 0 0 0 0 0 0 0 0 0 0 0 0 0 0 0
0 0 0 0 0 0 0 0 0 0 0 0 0 0 0 0 0 0 0 0 0 0 0 0 0 0 0 0 0 0 0 0 0 0 0 0 0 0 0 0 0 0 0 0
0 0 0 0 0 0 0 0 0 0 0 0 0 0 0 0 0 0 0 0 0 0 0 0 0 0 0 0 0 0 0 0 0 0 0 0 0 0 0 0 0 0 0 0
0 0 0 0 0 0 0 0 0 0 0 0 0 0 0 0 0 0 0 0 0 0 0 0 0 0 0 0 0 0 0 0 0 0 0 0 0 0 0 0 0 0 0 0
0 0 0 0 0 0 0 0 0 0 0 0 0 0 0 0 0 0 0 0 0 0 0 0 0 0 0 0 0 0 0 0 0 0 0 0 0 0 0 0 0 0 0 0
0 0 0 0 0 0 0 0 0 0 0 0 0 0 0 0 0 0 0 0 0 0 0 0 0 0 0 0 0 0 0 0 0 0 0 0 0 0 0 0 0 0 0 0
0 0 0 0 0 0 0 0 0 0 0 0 0 0 0 0 0 0 0 0 0 0 0 0 0 0 0 0 0 0 0 0 0 0 0 0 0 0 0 0 0 0 0 0
0 0 0 0 0 0 0 0 0 0 0 0 0 0 0 0 0 0 0 0 0 0 0 0 0 0 0 0 0 0 0 0 0 0 0 0 0 0 0 0 0 0 0 0
0 0 0 0 0 0 0 0 0 0 0 0 0 0 0 0 0 0 0 0 0 0 0 0 0 0 0 0 0 0 0 0 0 0 0 0 0 0 0 0 0 0 0 0
0 0 0 0 0 0 0 0 0 0 0 0 0 0 0 0 0 0 0 0 0 0 0 0 0 0 0 0 0 0 0 0 0 0 0 0 0 0 0 0 0 0 0 0
0 0 0 0 0 0 0 0 0 0 0 0 0 0 0 0 0 0 0 0 0 0 0 0 0 0 0 0 0 0 0 0 0 0 0 0 0 0 0 0 0 0 0 0
0 0 0 0 0 0 0 0 0 0 0 0 0 0 0 0 0 0 0 0 0 0 0 0 0 0 0 0 0 0 0 0 0 0 0 0 0 0 0 0 0 0 0 0
0 0 0 0 0 0 0 0 0 0 0 0 0 0 0 0 0 0 0 0 0 0 0 0 0 0 0 0 0 0 0 0 0 0 0 0 0 0 0 0 0 0 0 0
0 0 0 0 0 0 0 0 0 0 0 0 0 0 0 0 0 0 0 0 0 0 0 0 0 0 0 0 0 0 0 0 0 0 0 0 0 0 0 0 0 0 0 0
0 0 0 0 0 0 0 0 0 0 0 0 0 0 0 0 0 0 0 0 0 0 0 0 0 0 0 0 0 0 0 0 0 0 0 0 0 0 0 0 0 0 0 0
0 0 0 0 0 0 0 0 0 0 0 0 0 0 0 0 0 0 0 0 0 0 0 0 0 0 0 0 0 0 0 0 0 0 0 0 0 0 0 0 0 0 0 0
0 0 0 0 0 0 0 0 0 0 0 0 0 0 0 0 0 0 0 0 0 0 0 0 0 0 0 0 0 0 0 0 0 0 0 0 0 0 0 0 0 0 0 0
0 0 0 0 0 0 0 0 0 0 0 0 0 0 0 0 0 0 0 0 0 0 0 0 0 0 0 0 0 0 0 0 0 0 0 0 0 0 0 0 0 0 0 0
0 0 0 0 0 0 0 0 0 0 0 0 0 0 0 0 0 0 0 0 0 0 0 0 0 0 0 0 0 0 0 0 0 0 0 0 0 0 0 0 0 0 0 0
0 0 0 0 0 0 0 0 0 0 0 0 0 0 0 0 0 0 0 0 0 0 0 0 0 0 0 0 0 0 0 0 0 0 0 0 0 0 0 0 0 0 0 0
Wind_Speed
2 4 3 5 5 3 3 3 4 4 2 2 5 7 6 4 4 4 4 4 4 3 1 1 2 3 3 3 3 2 2 1 2 2 2 2 2 2 2 2 2 2 2 1
4 2 4 2 2 1 2 2 3 3 1 1 3 7 5 4 5 6 6 5 5 3 2 2 2 2 2 2 2 1 1 1 1 1 0 0 1 1 2 2 2 2 2 1
5 4 2 2 2 3 3 4 4 3 3 2 2 6 3 2 2 2 3 4 4 5 5 3 2 1 1 1 1 1 1 0 0 1 1 1 2 2 2 3 2 2 2 1
2 2 1 2 2 3 4 3 2 1 1 3 1 5 6 4 2 4 4 3 4 4 4 4 3 2 2 1 1 1 1 0 0 0 1 1 0 1 2 2 3 3 2 2
2 1 1 2 3 3 3 1 1 1 2 2 2 3 8 2 4 6 5 4 4 4 4 4 4 3 2 1 1 1 1 0 0 0 1 1 1 2 2 2 3 3 2 2
2 1 1 2 1 2 2 4 4 4 3 3 6 5 8 5 6 4 4 4 4 3 3 3 3 3 1 1 1 1 1 1 1 1 1 2 2 2 2 3 2 3 2 2
3 2 1 1 2 2 2 4 3 3 1 7 3 5 9 5 4 5 5 4 4 3 3 2 2 2 2 2 2 1 2 2 2 2 2 2 3 3 4 3 3 3 3 3
1 4 2 1 3 4 4 6 6 6 6 5 2 7 7 3 1 2 2 2 2 2 2 3 3 3 2 3 2 2 3 3 3 2 3 3 3 2 3 4 3 3 3 4
4 4 2 1 1 3 4 4 4 4 1 2 6 6 6 0 0 1 1 1 1 2 2 2 2 2 2 2 3 3 3 3 3 3 3 3 3 3 4 4 4 3 4 4
4 3 3 2 1 1 1 4 4 4 4 5 6 5 5 4 4 2 2 2 2 2 2 2 2 2 2 2 2 2 3 3 3 3 4 3 4 4 4 4 4 4 4 5
3 3 2 1 3 4 2 2 3 3 4 5 5 7 5 7 6 5 5 4 3 3 3 2 2 2 2 2 2 2 2 3 3 4 4 4 4 4 4 4 5 5 4 5
2 4 2 5 2 1 3 4 6 5 5 4 4 9 2 3 3 3 3 3 2 2 2 2 2 2 2 2 2 3 3 3 4 4 4 5 5 5 5 5 5 5 5 5
4 4 1 4 3 2 2 2 3 3 2 4 5 8 1 1 0 1 2 2 2 2 2 2 2 2 3 3 3 3 3 4 4 4 4 5 5 5 6 6 5 5 5 5
4 3 6 8 6 4 4 4 4 4 4 5 8 9 6 3 3 3 2 2 2 2 2 2 3 3 4 4 4 4 4 4 4 4 4 5 5 6 6 6 5 6 6 6
3 3 4 5 4 3 5 5 6 8 8 8 8 8 9 6 5 4 3 2 2 3 3 3 4 4 4 4 4 4 4 4 4 4 5 5 5 5 5 5 5 5 6 6
2 2 1 3 2 2 4 6 7 8 7 8 8 10 7 4 2 2 3 3 3 4 5 5 5 5 5 5 5 5 5 5 4 5 6 6 5 5 5 5 5 6 6 6
3 4 2 3 2 2 6 7 8 6 6 7 10 9 3 3 4 4 5 4 5 5 5 5 5 5 5 5 5 6 5 5 5 5 6 6 5 5 6 6 6 6 6 6
5 4 3 1 1 6 7 2 5 6 5 5 5 4 3 4 4 4 4 4 5 5 5 5 5 5 5 5 5 5 5 5 5 6 6 6 5 6 6 6 6 6 6 6
3 5 3 2 3 7 6 2 2 4 5 4 6 5 4 2 3 3 3 3 4 5 5 5 5 5 5 5 5 4 5 5 5 6 6 6 6 6 6 6 6 6 5 6
2 2 3 3 3 7 5 2 1 2 4 2 3 3 3 1 2 4 2 3 4 4 4 4 4 4 5 5 4 4 5 5 6 7 7 6 6 6 7 7 6 5 5 6
1 1 3 4 5 7 4 3 1 3 5 2 2 2 2 3 4 4 4 4 4 4 4 4 4 4 5 5 4 5 5 6 7 7 6 6 6 6 6 6 5 5 5 5
5 4 3 3 4 7 1 2 3 4 2 1 1 1 2 4 4 4 4 4 4 4 4 4 4 5 5 4 4 5 6 6 6 6 6 6 6 5 4 5 4 4 4 5
4 5 4 6 6 2 2 2 3 2 2 2 2 2 2 3 4 4 4 4 4 4 5 4 4 6 6 5 4 6 7 6 6 6 6 6 5 4 3 4 4 4 4 4
3 1 2 3 5 4 3 2 3 2 2 2 2 3 2 3 4 5 4 4 4 4 4 4 4 5 6 5 5 5 6 6 5 6 5 5 4 4 3 3 3 3 3 4
3 2 1 4 5 4 3 3 4 3 2 2 3 2 2 3 4 4 4 5 4 5 4 4 4 5 7 6 6 6 6 5 5 5 5 5 4 4 4 3 3 4 4 4
2 4 4 5 4 3 5 4 2 2 3 3 2 3 2 2 3 4 4 4 4 5 4 4 5 6 6 6 6 7 6 5 4 5 5 4 3 3 3 4 4 6 6 7
Wind_Direction
56 83 187 210 204 197 173 188 228 243 240 200 225 249 261 236 200 192 191 189 190 205 209 142 125 114 110 106 109 112 97 63 63 49 34 11 351 340 339 340 352 356 344 0
48 249 231 205 209 193 185 219 249 287 340 241 258 271 264 228 203 196 191 189 187 167 113 107 100 103 115 123 120 115 111 96 61 49 14 316 308 308 318 315 328 341 342 334
184 232 222 181 182 194 225 209 223 241 335 348 339 298 252 247 201 185 181 178 176 168 165 162 148 146 121 126 159 168 176 126 43 47 45 24 13 351 347 332 322 325 326 316
229 277 224 158 195 178 233 218 202 200 136 270 163 275 266 231 230 219 216 191 184 180 169 168 167 172 181 207 197 187 187 137 102 116 116 101 359 303 296 298 299 301 302 305
258 295 158 201 222 178 197 140 154 169 170 291 245 218 273 222 226 229 219 202 193 189 181 182 185 189 193 204 198 198 191 209 257 216 170 173 270 276 292 294 301 299 294 290
252 307 221 210 255 163 130 70 50 53 79 262 222 191 264 223 209 209 211 204 196 185 186 194 188 178 185 200 200 196 194 239 251 236 219 205 232 263 282 292 283 296 289 285
317 303 325 71 81 34 98 100 36 349 322 249 208 207 248 240 202 192 198 204 195 177 179 184 187 197 201 205 214 218 221 246 247 238 240 233 229 236 241 262 258 276 283 281
229 277 245 247 184 182 196 159 168 204 229 272 270 232 253 254 209 170 175 184 177 181 189 200 205 205 214 221 221 221 233 244 247 244 249 247 238 239 246 253 250 251 263 261
190 253 317 308 298 156 161 196 174 145 170 266 261 275 292 254 167 140 153 152 202 220 218 223 224 213 215 237 239 225 227 239 247 249 252 253 247 247 252 259 253 250 264 271
164 237 288 314 17 349 178 154 124 148 184 245 272 257 241 231 225 214 212 219 241 249 239 240 235 228 242 244 253 259 239 236 244 247 245 258 250 247 249 254 256 250 259 267
144 167 298 331 208 207 162 169 162 161 183 187 250 261 227 204 200 201 215 218 221 237 242 244 251 252 258 272 262 254 264 264 259 253 251 255 255 253 253 253 256 252 252 259
169 141 234 250 263 273 199 193 163 177 223 203 222 266 282 200 195 191 215 230 240 248 257 257 262 279 284 278 269 257 258 259 264 262 257 255 258 256 252 253 254 255 251 257
152 133 58 330 324 336 255 227 192 163 151 192 209 259 334 55 54 221 224 251 272 280 287 288 282 275 274 275 269 268 267 268 270 264 269 262 255 253 252 253 253 254 248 254
126 159 192 215 230 194 224 231 204 169 193 222 228 250 283 287 276 277 265 256 263 270 273 275 281 275 275 280 273 271 274 273 277 275 268 270 261 253 251 253 250 250 245 247
126 202 236 260 266 224 230 226 203 207 210 216 239 242 263 262 250 249 244 262 278 285 285 284 286 284 286 291 289 281 282 280 278 274 274 271 274 266 258 255 252 248 248 248
135 194 231 279 279 249 269 252 223 229 231 238 258 268 267 271 260 257 257 258 267 276 279 283 287 290 290 289 291 293 288 287 283 276 275 275 275 278 266 257 257 251 249 247
176 163 169 251 286 5 270 236 206 210 216 204 232 247 267 285 261 249 248 246 252 266 275 277 278 279 280 281 282 283 283 287 282 277 277 274 273 276 274 261 254 249 245 249
169 163 177 202 84 234 245 211 192 201 239 224 238 256 247 252 269 266 245 232 256 271 274 276 277 279 279 279 282 284 287 281 276 275 276 279 279 277 278 268 253 249 248 247
168 164 172 179 219 267 288 253 186 195 263 231 228 254 274 309 331 299 255 232 256 270 275 274 272 276 280 280 282 287 287 286 281 277 278 280 277 271 269 266 261 253 251 253
83 140 168 185 206 237 257 273 259 120 279 263 206 241 267 12 298 274 298 313 304 297 291 290 292 292 288 286 283 281 283 283 280 279 280 279 272 263 262 263 263 260 254 253
104 159 194 207 228 257 271 289 105 164 259 300 220 236 245 228 237 273 302 309 305 301 301 302 300 295 290 292 288 283 283 277 280 284 284 280 271 263 261 262 263 260 261 260
176 177 197 178 211 252 296 106 178 234 293 302 262 247 248 261 282 295 299 303 308 310 310 307 306 305 305 301 292 287 286 290 294 292 289 285 280 271 265 259 263 259 252 256
199 197 195 198 218 254 183 208 260 272 276 285 277 283 270 281 289 297 298 297 302 304 305 307 304 307 311 309 299 291 295 302 302 299 297 295 293 287 278 263 261 261 248 247
267 284 197 255 268 275 268 283 311 300 271 280 281 288 281 275 286 296 296 300 304 306 307 308 309 310 312 315 313 302 305 307 303 303 303 303 301 298 294 284 269 261 247 244
227 185 219 257 283 312 285 262 275 290 305 313 314 299 278 272 289 293 297 299 302 306 308 308 308 307 310 316 318 315 314 313 310 308 308 310 306 304 298 292 278 272 259 250
209 185 191 235 241 232 265 275 282 289 297 295 304 316 317 286 287 299 298 300 302 304 309 312 310 307 311 317 318 319 320 318 313 313 315 312 310 307 301 300 306 302 292 291